Location: Newark
(16.9667°N, 88.2167°W)
Time: 07:17:54
(UTC+00:00)

Hubble Space Telescope - Visible Passes

Search period start: 19 October 2019 00:00
Search period end: 29 October 2019 00:00
Orbit: 536 x 540 km, 28.5° (Epoch: 19 October)

Date Brightness Start Highest point End Pass type
(mag) Time Alt. Az. Time Alt. Az. Time Alt. Az.
22 Oct 3.7 10:37:19 10° SSE 10:38:32 11° SSE 10:39:44 10° SE visible
23 Oct 3.4 10:25:27 10° S 10:27:55 15° SSE 10:30:24 10° ESE visible
24 Oct 2.9 10:15:14 15° S 10:17:19 21° SSE 10:20:28 10° E visible
25 Oct 2.3 10:06:00 27° S 10:06:43 29° SSE 10:10:18 10° E visible
26 Oct 2.1 09:56:40 37° SE 09:56:40 37° SE 09:59:59 10° E visible
27 Oct 2.6 09:47:15 30° E 09:47:15 30° E 09:49:34 10° ENE visible
27 Oct 1.6 11:22:59 10° W 11:26:46 35° NNW 11:30:34 10° NE visible
28 Oct 3.2 09:37:44 20° ENE 09:37:44 20° ENE 09:39:04 10° ENE visible
28 Oct 1.9 11:13:06 12° WNW 11:16:17 29° NNW 11:19:53 10° NE visible
